Location: ??????
(38.1303°N, 24.0039°E)
Time: 04:33:28
(UTC+00:00)

IDEFIX/ARIANE 42P - Pass Details

Date: 20 June 2021
Orbit: 784 x 803 km, 98.4° (Epoch: 05 August)

Event Time Altitude Azimuth Distance (km) Brightness Sun altitude
Rises 00:01:57 0° 28° (NNE) 3,307 7.2 -24.4°
Reaches altitude 10° 00:04:48 10° 44° (NE) 2,369 6.0 -24.2°
Maximum altitude 00:08:49 22° 94° (E) 1,671 4.4 -23.8°
Enters shadow 00:11:30 15° 133° (SE) 2,008 4.5 -23.6°
